period_start,C,m1,H,J0,J1,J2,J3,J4,J5,JA,JB,JC,JD,JJ,JK,JN,#
2017-07-15 00:00:18,0.01,0.10,0.00,19.91,24.07,27.12,14.24,45.52,1028.34,2045.81,3521.00,3086.75,3538.99,599.87,609.13,25.86,0000 0000 0000 0000 000000
2017-07-15 00:05:19,0.02,0.10,0.00,19.90,24.07,27.14,14.36,45.58,1028.34,2045.86,3520.99,3086.38,3538.93,600.39,609.48,25.91,0000 0000 0000 0000 000000
2017-07-15 00:10:20,0.01,0.10,0.00,19.89,24.07,27.12,14.25,45.54,1028.33,2045.94,3520.97,3086.07,3538.90,599.93,609.15,25.96,0000 0000 0000 0000 000000
2017-07-15 00:15:22,0.04,0.10,0.00,19.90,24.06,27.15,14.22,45.57,1028.33,2045.96,3520.32,3085.84,3538.14,599.92,609.29,26.01,0000 0000 0000 0000 000000
2017-07-15 00:20:23,0.01,0.10,0.00,19.91,24.05,27.14,14.29,45.63,1028.33,2045.97,3520.00,3085.42,3537.95,600.11,609.34,26.06,0000 0000 0000 0000 000000
2017-07-15 00:25:24,-0.00,0.10,0.00,19.91,24.05,27.12,14.30,45.67,1028.33,2045.96,3520.00,3085.43,3537.97,600.09,609.27,26.11,0000 0000 0000 0000 000000
2017-07-15 00:30:26,0.01,0.11,0.00,19.91,24.05,27.10,14.31,45.69,1028.34,2045.96,3520.00,3085.24,3537.83,600.23,609.52,26.16,0000 0000 0000 0000 000000
2017-07-15 00:35:27,0.01,0.11,0.00,19.92,24.05,27.11,14.29,45.62,1028.34,2045.97,3519.99,3085.04,3537.15,600.17,609.48,26.21,0000 0000 0000 0000 000000
2017-07-15 00:40:28,-0.00,0.11,0.00,19.92,24.05,27.11,14.25,45.65,1028.34,2045.96,3519.99,3085.04,3537.13,600.02,609.27,26.26,0000 0000 0000 0000 000000
2017-07-15 00:45:29,0.01,0.11,0.00,19.92,24.05,27.12,14.30,45.63,1028.34,2045.97,3519.94,3084.99,3537.08,599.93,609.23,26.31,0000 0000 0000 0000 000000
2017-07-15 00:50:30,0.12,0.11,0.00,19.92,24.05,27.11,14.22,45.53,1028.34,2045.98,3518.23,3083.23,3534.60,600.16,609.41,26.36,0000 0000 0000 0000 000000
2017-07-15 00:55:32,-0.00,0.11,0.00,19.92,24.04,27.10,14.30,45.61,1028.34,2045.99,3517.99,3082.97,3534.19,600.11,609.40,26.41,0000 0000 0000 0000 000000
2017-07-15 01:00:33,0.00,0.11,0.00,19.92,24.04,27.13,14.26,45.51,1028.34,2045.97,3517.99,3082.98,3534.20,600.22,609.54,26.46,0000 0000 0000 0000 000000
2017-07-15 01:05:34,0.00,0.11,0.00,19.92,24.04,27.11,14.28,45.51,1028.33,2045.97,3517.99,3082.98,3534.07,600.22,609.34,26.51,0000 0000 0000 0000 000000
2017-07-15 01:10:36,0.03,0.11,0.00,19.94,24.04,27.11,14.30,45.56,1028.33,2045.97,3517.68,3082.58,3533.72,600.36,609.47,26.56,0000 0000 0000 0000 000000
2017-07-15 01:15:37,0.02,0.12,0.00,19.94,24.04,27.11,14.20,45.48,1028.33,2045.98,3517.01,3081.98,3533.03,599.45,608.86,26.61,0000 0000 0000 0000 000000
2017-07-15 01:20:38,0.00,0.12,0.00,19.96,24.04,27.08,14.24,45.58,1028.30,2045.97,3517.00,3081.95,3533.02,599.87,609.02,26.66,0000 0000 0000 0000 000000
2017-07-15 01:25:40,0.00,0.12,0.00,19.97,24.04,27.10,14.15,45.56,1028.30,2045.98,3516.99,3081.96,3533.01,599.70,608.95,26.71,0000 0000 0000 0000 000000
2017-07-15 01:30:41,0.00,0.12,0.00,19.98,24.04,27.11,14.16,45.59,1028.32,2045.98,3516.99,3081.96,3533.00,599.95,609.10,26.76,0000 0000 0000 0000 000000
2017-07-15 01:35:43,0.00,0.12,0.00,19.99,24.05,27.11,14.26,45.64,1028.32,2045.98,3516.98,3081.84,3533.00,599.85,608.99,26.81,0000 0000 0000 0000 000000
2017-07-15 01:40:44,0.00,0.12,0.00,20.01,24.05,27.13,14.23,45.45,1028.33,2045.99,3516.98,3081.57,3533.00,599.69,608.79,26.86,0000 0000 0000 0000 000000
2017-07-15 01:45:45,0.01,0.12,0.00,20.03,24.05,27.10,14.30,45.58,1028.33,2045.98,3516.80,3081.14,3533.00,600.00,609.02,26.91,0000 0000 0000 0000 000000
2017-07-15 01:50:47,0.00,0.12,0.00,20.04,24.05,27.11,14.25,45.71,1028.32,2045.98,3516.89,3081.06,3532.99,600.05,609.13,26.96,0000 0000 0000 0000 000000
2017-07-15 01:55:48,-0.01,0.12,0.00,20.04,24.05,27.11,14.24,45.66,1028.30,2045.95,3516.97,3081.14,3532.98,599.97,608.93,27.01,0000 0000 0000 0000 000000
2017-07-15 02:00:49,-0.00,0.12,0.00,20.06,24.07,27.11,14.25,45.60,1028.19,2045.84,3516.88,3081.06,3532.97,600.18,608.89,27.06,0000 0000 0000 0000 000000
2017-07-15 02:05:51,0.00,0.12,0.00,20.07,24.07,27.09,14.34,45.52,1028.23,2045.74,3516.60,3080.89,3532.74,600.04,608.95,27.11,0000 0000 0000 0000 000000
2017-07-15 02:10:52,0.08,0.12,0.00,20.10,24.07,27.15,14.23,45.57,1028.24,2045.40,3513.65,3079.28,3530.80,599.89,608.72,27.16,0000 0000 0000 0000 000000
2017-07-15 02:15:53,-0.00,0.12,0.00,20.11,24.09,27.13,14.16,45.78,1028.19,2045.40,3513.62,3079.16,3530.77,599.77,608.58,27.21,0000 0000 0000 0000 000000
2017-07-15 02:20:55,-0.00,0.12,0.00,20.12,24.10,27.13,14.26,45.73,1028.03,2045.10,3513.22,3079.05,3530.35,600.17,608.86,27.26,0000 0000 0000 0000 000000
2017-07-15 02:25:56,0.23,0.12,0.00,20.15,24.10,27.15,14.29,45.88,1028.01,2045.22,3510.81,3076.93,3527.80,600.28,608.83,27.31,0000 0000 0000 0000 000000
2017-07-15 02:30:57,0.28,0.15,0.00,20.17,24.12,27.18,14.30,45.89,1027.95,2045.14,3503.74,3071.06,3520.65,600.06,608.64,27.36,0000 0000 0000 0000 000000
2017-07-15 02:35:58,0.01,0.15,0.00,20.19,24.12,27.16,14.24,45.91,1027.90,2045.02,3503.09,3070.45,3520.05,599.91,608.43,27.41,0000 0000 0000 0000 000000
2017-07-15 02:41:00,0.00,0.15,0.00,20.21,24.13,27.17,14.24,45.89,1027.90,2045.01,3502.96,3070.02,3520.00,600.24,608.64,27.46,0000 0000 0000 0000 000000
2017-07-15 02:46:01,0.03,0.15,0.00,20.23,24.15,27.16,14.24,45.90,1028.07,2045.01,3502.19,3069.96,3519.55,599.54,607.97,27.51,0000 0000 0000 0000 000000
2017-07-15 02:51:02,0.11,0.15,0.00,20.25,24.16,27.23,14.28,45.83,1028.30,2045.02,3501.08,3068.58,3518.10,599.99,608.53,27.56,0000 0000 0000 0000 000000
2017-07-15 02:56:03,0.07,0.16,0.00,20.28,24.17,27.21,14.24,45.88,1028.26,2045.00,3499.00,3066.57,3516.03,600.29,608.73,27.61,0000 0000 0000 0000 000000
2017-07-15 03:01:05,0.02,0.16,0.00,20.29,24.18,27.23,14.27,45.84,1028.26,2045.00,3498.36,3066.00,3515.47,599.99,608.25,27.66,0000 0000 0000 0000 000000
2017-07-15 03:06:06,0.48,0.17,0.00,20.32,24.20,27.24,14.23,45.81,1028.25,2045.00,3490.22,3060.36,3509.11,599.94,608.28,27.71,0000 0000 0000 0000 000000
2017-07-15 03:11:07,0.09,0.19,0.00,20.32,24.21,27.29,14.22,45.84,1028.27,2045.00,3485.80,3057.48,3505.62,600.26,608.58,27.76,0000 0000 0000 0000 000000
2017-07-15 03:16:08,0.01,0.19,0.00,20.32,24.22,27.26,14.32,45.90,1028.31,2045.00,3485.01,3056.95,3505.01,600.27,608.66,27.81,0000 0000 0000 0000 000000
2017-07-15 03:21:09,0.00,0.19,0.00,20.35,24.24,27.27,14.20,45.77,1028.32,2044.99,3485.00,3056.68,3505.00,600.03,608.33,27.86,0000 0000 0000 0000 000000
2017-07-15 03:26:11,0.01,0.19,0.00,20.37,24.25,27.29,14.24,45.81,1028.29,2044.97,3484.99,3056.20,3504.97,599.87,608.20,27.91,0000 0000 0000 0000 000000
2017-07-15 03:31:13,0.01,0.19,0.00,20.39,24.27,27.32,14.26,45.76,1028.24,2044.96,3484.76,3056.06,3504.81,599.86,608.06,27.96,0000 0000 0000 0000 000000
2017-07-15 03:36:14,0.00,0.19,0.00,20.40,24.28,27.33,14.19,45.81,1028.28,2044.94,3484.48,3056.00,3504.21,599.62,607.83,28.01,0000 0000 0000 0000 000000
2017-07-15 03:41:15,0.07,0.19,0.00,20.42,24.30,27.34,14.21,45.74,1028.28,2044.76,3483.36,3054.63,3502.67,600.04,608.22,28.06,0000 0000 0000 0000 000000
2017-07-15 03:46:16,0.00,0.20,0.00,20.44,24.32,27.36,14.19,45.78,1028.11,2044.66,3482.98,3054.01,3502.01,599.70,607.75,28.11,0000 0000 0000 0000 000000
2017-07-15 03:51:17,-0.01,0.20,0.00,20.47,24.32,27.37,14.19,45.78,1028.21,2044.46,3482.59,3054.00,3502.00,599.61,607.67,28.16,0000 0000 0000 0000 000000
2017-07-15 03:56:19,0.00,0.19,0.00,20.47,24.35,27.36,14.27,45.80,1028.16,2044.23,3482.19,3053.99,3501.99,600.00,608.00,28.21,0000 0000 0000 0000 000000
2017-07-15 04:01:20,-0.01,0.19,0.00,20.49,24.36,27.37,14.16,45.69,1028.04,2044.10,3482.03,3053.98,3501.96,599.98,607.86,28.26,0000 0000 0000 0000 000000
2017-07-15 04:06:22,0.01,0.19,0.00,20.51,24.38,27.41,14.24,45.79,1027.93,2044.12,3482.00,3053.94,3501.86,600.33,608.12,28.31,0000 0000 0000 0000 000000
2017-07-15 04:11:23,0.02,0.20,0.00,20.52,24.40,27.42,14.17,45.63,1028.01,2044.10,3482.00,3053.48,3501.31,599.99,607.79,28.36,0000 0000 0000 0000 000000
2017-07-15 04:16:24,0.01,0.20,0.00,20.53,24.42,27.43,14.21,45.67,1028.04,2044.02,3481.98,3053.12,3501.02,599.89,607.84,28.41,0000 0000 0000 0000 000000
2017-07-15 04:21:25,0.00,0.20,0.00,20.54,24.43,27.44,14.23,45.76,1028.00,2044.00,3481.82,3052.92,3500.90,600.35,608.10,28.46,0000 0000 0000 0000 000000
2017-07-15 04:26:27,0.15,0.20,0.00,20.57,24.45,27.46,14.28,45.81,1027.90,2044.00,3480.00,3051.15,3498.91,599.69,607.42,28.51,0000 0000 0000 0000 000000
2017-07-15 04:31:28,0.25,0.22,0.00,20.59,24.46,27.48,14.24,45.76,1027.91,2044.00,3475.28,3046.35,3493.36,599.82,607.42,28.56,0000 0000 0000 0000 000000
2017-07-15 04:36:29,0.00,0.22,0.00,20.59,24.48,27.51,14.19,45.68,1027.89,2044.00,3474.91,3046.00,3492.98,599.47,607.08,28.61,0000 0000 0000 0000 000000
2017-07-15 04:41:30,0.01,0.22,0.00,20.62,24.50,27.51,14.10,45.61,1027.88,2043.98,3474.46,3045.98,3492.72,599.60,607.19,28.66,0000 0000 0000 0000 000000
2017-07-15 04:46:31,0.01,0.22,0.00,20.63,24.52,27.52,14.25,45.82,1027.88,2043.98,3474.19,3045.94,3492.43,600.29,607.82,28.71,0000 0000 0000 0000 000000
2017-07-15 04:51:32,0.01,0.22,0.00,20.64,24.53,27.55,14.22,45.67,1027.88,2043.96,3474.00,3045.63,3492.05,600.12,607.58,28.76,0000 0000 0000 0000 000000
2017-07-15 04:56:34,0.08,0.22,0.00,20.65,24.55,27.55,14.26,45.85,1027.91,2043.96,3472.69,3044.61,3491.15,600.32,607.76,28.81,0000 0000 0000 0000 000000
2017-07-15 05:01:35,0.17,0.23,0.00,20.67,24.56,27.57,14.19,45.77,1027.90,2043.96,3468.43,3041.84,3488.26,599.73,607.15,28.86,0000 0000 0000 0000 000000
2017-07-15 05:06:36,0.12,0.23,0.00,20.68,24.57,27.60,14.18,45.76,1027.89,2043.92,3466.69,3040.23,3486.48,599.79,607.24,28.91,0000 0000 0000 0000 000000
2017-07-15 05:11:37,0.05,0.24,0.00,20.70,24.60,27.63,14.23,45.83,1027.92,2043.90,3464.99,3038.65,3484.33,600.40,607.83,28.97,0000 0000 0000 0000 000000
2017-07-15 05:16:39,0.02,0.24,0.00,20.72,24.61,27.63,14.24,45.76,1027.99,2043.83,3464.20,3038.04,3484.01,600.19,607.57,29.02,0000 0000 0000 0000 000000
2017-07-15 05:21:40,-0.00,0.24,0.00,20.72,24.62,27.63,14.25,45.88,1028.00,2043.83,3464.00,3038.00,3484.00,600.12,607.57,29.07,0000 0000 0000 0000 000000
2017-07-15 05:26:41,-0.06,0.24,0.00,20.74,24.64,27.66,14.17,45.65,1028.05,2043.25,3463.99,3038.00,3483.96,599.67,607.01,29.12,0000 0000 0000 0000 000000
2017-07-15 05:31:42,-0.00,0.24,0.00,20.74,24.65,27.68,14.27,45.78,1028.03,2043.07,3463.96,3037.98,3483.64,600.46,607.84,29.17,0000 0000 0000 0000 000000
2017-07-15 05:36:44,0.02,0.24,0.00,20.76,24.67,27.72,14.19,45.76,1027.98,2043.03,3463.51,3037.88,3483.15,599.70,607.04,29.22,0000 0000 0000 0000 000000
2017-07-15 05:41:45,0.02,0.24,0.00,20.78,24.68,27.72,14.18,45.73,1027.89,2043.01,3463.00,3037.11,3483.00,600.00,607.34,29.27,0000 0000 0000 0000 000000
2017-07-15 05:46:46,0.00,0.24,0.00,20.79,24.70,27.72,14.13,45.55,1027.87,2043.03,3462.96,3037.02,3482.99,600.13,607.41,29.32,0000 0000 0000 0000 000000
2017-07-15 05:51:47,0.02,0.24,0.00,20.79,24.71,27.74,14.16,45.60,1027.87,2043.01,3462.40,3036.90,3482.67,599.94,607.17,29.37,0000 0000 0000 0000 000000
2017-07-15 05:56:49,0.05,0.24,0.00,20.82,24.72,27.77,14.11,45.31,1027.85,2043.02,3461.28,3036.06,3481.55,599.76,606.90,29.42,0000 0000 0000 0000 000000
2017-07-15 06:01:50,0.00,0.24,0.00,20.83,24.74,27.77,14.23,45.61,1027.86,2043.02,3461.00,3035.98,3481.09,600.12,607.02,29.47,0000 0000 0000 0000 000000
2017-07-15 06:06:52,0.00,0.25,0.00,20.84,24.75,27.79,14.18,45.50,1027.85,2043.01,3460.99,3035.88,3481.01,599.62,606.82,29.52,0000 0000 0000 0000 000000
2017-07-15 06:11:53,0.01,0.25,0.00,20.84,24.77,27.80,14.32,45.77,1027.85,2043.00,3460.96,3035.46,3481.00,600.93,607.98,29.57,0000 0000 0000 0000 000000
2017-07-15 06:16:54,0.01,0.25,0.00,20.86,24.77,27.81,14.16,45.53,1027.85,2043.00,3460.87,3035.09,3480.98,600.04,607.13,29.62,0000 0000 0000 0000 000000
2017-07-15 06:21:55,-0.00,0.25,0.00,20.85,24.79,27.83,14.16,45.77,1027.86,2042.99,3460.89,3035.05,3480.97,599.96,607.04,29.67,0000 0000 0000 0000 000000
2017-07-15 06:26:56,0.00,0.25,0.00,20.86,24.80,27.85,14.20,45.74,1027.85,2042.98,3460.75,3035.02,3480.91,600.05,607.06,29.72,0000 0000 0000 0000 000000
2017-07-15 06:31:58,-0.00,0.25,0.00,20.88,24.81,27.84,14.18,45.75,1027.85,2042.97,3460.87,3035.02,3480.83,600.14,607.10,29.77,0000 0000 0000 0000 000000
2017-07-15 06:36:59,0.01,0.25,0.00,20.89,24.82,27.88,14.16,45.69,1027.85,2042.96,3460.57,3035.00,3480.51,599.80,606.86,29.82,0000 0000 0000 0000 000000
2017-07-15 06:42:00,0.01,0.25,0.00,20.90,24.83,27.85,14.14,45.41,1027.85,2042.96,3460.08,3035.00,3480.23,599.81,606.65,29.87,0000 0000 0000 0000 000000
2017-07-15 06:47:01,-0.00,0.25,0.00,20.92,24.85,27.89,14.22,45.60,1027.85,2042.88,3460.07,3035.00,3480.06,600.11,607.16,29.92,0000 0000 0000 0000 000000
2017-07-15 06:52:02,-0.02,0.25,0.00,20.92,24.85,27.90,14.19,45.59,1027.85,2042.68,3460.03,3035.00,3480.01,600.22,607.17,29.97,0000 0000 0000 0000 000000
2017-07-15 06:57:04,-0.01,0.25,0.00,20.92,24.87,27.90,14.21,45.53,1027.85,2042.66,3460.03,3035.00,3480.01,600.04,606.96,30.02,0000 0000 0000 0000 000000
2017-07-15 07:02:05,-0.03,0.25,0.00,20.94,24.87,27.91,14.25,45.63,1027.85,2042.44,3460.01,3034.99,3480.00,600.31,606.96,30.07,0000 0000 0000 0000 000000
2017-07-15 07:07:06,-0.00,0.24,0.00,20.94,24.89,27.91,14.20,45.50,1027.86,2042.26,3460.02,3034.98,3480.00,600.45,607.18,30.12,0000 0000 0000 0000 000000
2017-07-15 07:12:07,-0.01,0.24,0.00,20.94,24.90,27.93,14.21,45.58,1027.85,2042.13,3460.00,3034.93,3480.00,600.30,607.18,30.17,0000 0000 0000 0000 000000
2017-07-15 07:17:09,0.00,0.24,0.00,20.95,24.91,27.94,14.21,45.46,1027.85,2042.02,3460.00,3034.68,3479.96,600.21,606.88,30.22,0000 0000 0000 0000 000000
2017-07-15 07:22:10,0.00,0.24,0.00,20.97,24.92,27.97,14.23,45.63,1027.85,2042.02,3459.97,3034.53,3479.98,600.13,607.08,30.27,0000 0000 0000 0000 000000
2017-07-15 07:27:11,0.00,0.24,0.00,20.97,24.93,27.96,14.15,45.44,1027.85,2042.02,3459.96,3034.29,3479.93,600.01,606.74,30.32,0000 0000 0000 0000 000000
2017-07-15 07:32:12,0.00,0.24,0.00,20.98,24.95,28.01,14.15,45.44,1027.85,2042.00,3459.95,3034.25,3479.85,599.91,606.80,30.37,0000 0000 0000 0000 000000
2017-07-15 07:37:13,0.01,0.24,0.00,20.98,24.95,27.99,14.19,45.50,1027.86,2042.00,3459.92,3034.09,3479.62,599.89,606.66,30.42,0000 0000 0000 0000 000000
2017-07-15 07:42:15,0.01,0.25,0.00,20.99,24.96,28.00,14.23,45.34,1027.86,2042.00,3459.47,3034.02,3479.38,600.09,606.72,30.47,0000 0000 0000 0000 000000
2017-07-15 07:47:16,0.00,0.25,0.00,20.99,24.97,28.04,14.22,45.73,1027.86,2042.00,3459.08,3034.01,3479.06,600.09,606.74,30.52,0000 0000 0000 0000 000000
2017-07-15 07:52:17,0.00,0.25,0.00,20.99,24.97,28.03,14.19,45.62,1027.87,2042.00,3459.03,3034.00,3479.01,600.05,606.58,30.57,0000 0000 0000 0000 000000
2017-07-15 07:57:18,0.00,0.25,0.00,21.00,24.97,28.03,14.19,45.33,1027.94,2042.00,3459.00,3034.00,3479.01,599.86,606.64,30.62,0000 0000 0000 0000 000000
2017-07-15 08:02:19,0.00,0.25,0.00,21.00,24.99,28.06,14.17,45.52,1027.91,2042.00,3459.00,3033.99,3479.00,599.51,606.34,30.67,0000 0000 0000 0000 000000
2017-07-15 08:07:21,0.00,0.25,0.00,20.99,25.00,28.06,14.22,45.61,1027.87,2042.00,3459.00,3033.99,3479.00,599.98,606.89,30.72,0000 0000 0000 0000 000000
2017-07-15 08:12:22,0.00,0.25,0.00,21.01,25.00,28.09,14.18,45.53,1027.87,2042.00,3459.00,3033.99,3479.00,599.63,606.16,30.77,0000 0000 0000 0000 000000
2017-07-15 08:17:23,0.00,0.25,0.00,21.02,25.01,28.07,14.18,45.65,1027.90,2042.00,3458.99,3033.98,3478.99,599.92,606.54,30.82,0000 0000 0000 0000 000000
2017-07-15 08:22:24,0.00,0.25,0.00,21.02,25.02,28.10,14.20,45.48,1027.88,2042.00,3458.95,3033.99,3478.99,600.06,606.79,30.87,0000 0000 0000 0000 000000
2017-07-15 08:27:25,0.00,0.25,0.00,21.02,25.02,28.09,14.17,45.52,1027.86,2041.99,3458.94,3033.92,3478.98,600.01,606.63,30.92,0000 0000 0000 0000 000000
2017-07-15 08:32:26,0.00,0.25,0.00,21.03,25.02,28.10,14.21,45.67,1027.85,2041.99,3458.97,3033.90,3478.95,600.42,607.18,30.97,0000 0000 0000 0000 000000
2017-07-15 08:37:27,-0.00,0.25,0.00,21.04,25.04,28.12,14.13,45.33,1027.85,2041.99,3458.96,3033.86,3478.94,599.84,606.57,31.02,0000 0000 0000 0000 000000
2017-07-15 08:42:29,0.01,0.25,0.00,21.04,25.05,28.12,14.26,45.43,1027.85,2041.98,3458.79,3033.62,3478.88,599.97,606.54,31.07,0000 0000 0000 0000 000000
2017-07-15 08:47:30,0.00,0.25,0.00,21.04,25.05,28.10,14.17,45.38,1027.85,2041.98,3458.88,3033.67,3478.80,600.08,606.75,31.12,0000 0000 0000 0000 000000
2017-07-15 08:52:30,0.01,0.25,0.00,21.06,25.05,28.10,14.09,45.25,1027.85,2041.93,3458.77,3033.32,3478.29,599.80,606.69,31.17,0000 0000 0000 0000 000000
2017-07-15 08:57:32,0.01,0.25,0.00,21.07,25.07,28.11,14.17,45.42,1027.85,2041.89,3458.69,3033.19,3478.17,599.97,606.40,31.22,0000 0000 0000 0000 000000
2017-07-15 09:02:33,-0.02,0.25,0.00,21.08,25.07,28.12,14.23,45.61,1027.85,2041.73,3458.56,3033.13,3478.10,600.09,606.69,31.27,0000 0000 0000 0000 000000
2017-07-15 09:07:34,-0.01,0.25,0.00,21.09,25.07,28.11,14.21,45.38,1027.85,2041.54,3458.51,3033.08,3478.04,600.32,606.78,31.32,0000 0000 0000 0000 000000
2017-07-15 09:12:35,-0.03,0.24,0.00,21.09,25.09,28.13,14.19,45.37,1027.85,2041.19,3458.37,3033.05,3478.01,600.17,606.69,31.37,0000 0000 0000 0000 000000
2017-07-15 09:17:36,0.00,0.24,0.00,21.11,25.10,28.14,14.09,45.37,1027.84,2041.14,3458.12,3033.01,3478.00,599.65,606.15,31.42,0000 0000 0000 0000 000000
2017-07-15 09:22:37,-0.00,0.24,0.00,21.11,25.10,28.16,14.24,45.57,1027.85,2041.07,3458.04,3033.00,3478.00,600.08,606.53,31.47,0000 0000 0000 0000 000000
2017-07-15 09:27:39,-0.00,0.24,0.00,21.12,25.11,28.17,14.24,45.70,1027.85,2041.04,3458.00,3033.00,3478.00,600.32,606.97,31.52,0000 0000 0000 0000 000000
2017-07-15 09:32:40,0.00,0.24,0.00,21.13,25.12,28.15,14.21,45.57,1027.85,2041.04,3458.00,3033.00,3477.98,600.06,606.33,31.57,0000 0000 0000 0000 000000
2017-07-15 09:37:41,0.00,0.24,0.00,21.14,25.12,28.15,14.12,45.39,1027.85,2041.02,3457.99,3032.99,3477.98,599.43,605.67,31.62,0000 0000 0000 0000 000000
2017-07-15 09:42:42,0.00,0.24,0.00,21.14,25.14,28.18,14.19,45.31,1027.84,2041.02,3457.99,3032.99,3477.98,599.54,606.00,31.67,0000 0000 0000 0000 000000
2017-07-15 09:47:44,0.00,0.24,0.00,21.14,25.15,28.20,14.18,45.39,1027.84,2041.01,3457.99,3032.99,3477.98,600.41,606.73,31.72,0000 0000 0000 0000 000000
2017-07-15 09:52:45,0.00,0.24,0.00,21.14,25.15,28.20,14.19,45.27,1027.84,2041.02,3457.98,3032.98,3477.97,600.32,606.74,31.77,0000 0000 0000 0000 000000
2017-07-15 09:57:46,0.00,0.24,0.00,21.13,25.16,28.22,14.11,45.14,1027.85,2041.04,3457.94,3032.96,3477.92,599.97,606.34,31.83,0000 0000 0000 0000 000000
2017-07-15 10:02:47,-0.00,0.24,0.00,21.13,25.17,28.20,14.19,45.33,1027.85,2041.10,3457.93,3032.98,3477.97,600.29,606.57,31.88,0000 0000 0000 0000 000000
2017-07-15 10:07:48,0.00,0.24,0.00,21.12,25.17,28.26,14.15,45.45,1027.84,2041.02,3457.93,3032.96,3477.82,600.20,606.68,31.93,0000 0000 0000 0000 000000
2017-07-15 10:12:49,0.01,0.24,0.00,21.12,25.17,28.28,14.10,45.13,1027.84,2041.02,3457.94,3032.95,3477.60,599.70,606.12,31.98,0000 0000 0000 0000 000000
2017-07-15 10:17:51,0.00,0.24,0.00,21.10,25.17,28.26,14.18,45.44,1027.84,2041.00,3457.88,3032.89,3477.42,599.77,606.16,32.03,0000 0000 0000 0000 000000
2017-07-15 10:22:52,0.00,0.25,0.00,21.09,25.17,28.25,14.11,45.34,1027.85,2041.00,3457.61,3032.81,3477.13,599.82,606.29,32.08,0000 0000 0000 0000 000000
2017-07-15 10:27:53,0.01,0.25,0.00,21.08,25.18,28.28,14.14,45.59,1027.85,2041.00,3457.48,3032.71,3477.18,599.97,606.57,32.13,0000 0000 0000 0000 000000
2017-07-15 10:32:55,-0.01,0.25,0.00,21.08,25.19,28.27,14.00,45.28,1027.85,2041.00,3457.64,3032.82,3477.15,599.25,605.81,32.18,0000 0000 0000 0000 000000
2017-07-15 10:37:56,0.02,0.25,0.00,21.08,25.19,28.25,14.23,45.36,1027.85,2041.00,3457.28,3032.47,3477.06,599.72,606.22,32.23,0000 0000 0000 0000 000000
2017-07-15 10:42:57,0.00,0.25,0.00,21.07,25.19,28.27,14.12,45.09,1027.84,2041.00,3457.02,3032.04,3477.00,599.23,605.90,32.28,0000 0000 0000 0000 000000
2017-07-15 10:47:59,0.00,0.25,0.00,21.07,25.19,28.27,14.21,45.51,1027.84,2041.01,3457.00,3032.01,3477.00,600.22,606.89,32.33,0000 0000 0000 0000 000000
2017-07-15 10:53:00,0.00,0.25,0.00,21.06,25.19,28.27,14.05,45.44,1027.83,2041.00,3457.00,3032.01,3477.00,599.72,606.32,32.38,0000 0000 0000 0000 000000
2017-07-15 10:58:01,0.00,0.25,0.00,21.04,25.19,28.27,14.17,45.35,1027.80,2041.00,3457.01,3032.00,3476.99,600.07,606.68,32.43,0000 0000 0000 0000 000000
2017-07-15 11:03:02,0.00,0.25,0.00,21.02,25.19,28.27,14.30,45.45,1027.79,2041.00,3457.00,3032.00,3476.99,600.24,606.92,32.48,0000 0000 0000 0000 000000
2017-07-15 11:08:04,0.00,0.25,0.00,21.02,25.19,28.27,14.13,45.26,1027.71,2041.00,3457.00,3032.01,3476.99,599.46,606.18,32.53,0000 0000 0000 0000 000000
2017-07-15 11:13:05,0.00,0.25,0.00,21.00,25.18,28.27,14.21,45.23,1027.65,2041.00,3457.00,3032.01,3476.99,599.80,606.48,32.58,0000 0000 0000 0000 000000
2017-07-15 11:18:06,0.00,0.25,0.00,20.99,25.17,28.27,14.22,45.33,1027.65,2041.01,3457.00,3032.02,3476.99,600.03,606.56,32.63,0000 0000 0000 0000 000000
2017-07-15 11:23:07,0.00,0.25,0.00,20.97,25.17,28.25,14.18,45.22,1027.60,2041.01,3457.00,3032.01,3476.99,599.89,606.59,32.68,0000 0000 0000 0000 000000
2017-07-15 11:28:09,0.00,0.25,0.00,20.97,25.17,28.27,14.18,45.36,1027.55,2041.01,3457.00,3032.01,3476.99,599.86,606.11,32.73,0000 0000 0000 0000 000000
2017-07-15 11:33:10,0.00,0.25,0.00,20.95,25.17,28.24,14.19,45.02,1027.42,2041.00,3457.00,3032.01,3476.99,599.85,606.50,32.78,0000 0000 0000 0000 000000
2017-07-15 11:38:11,0.00,0.25,0.00,20.95,25.17,28.22,14.17,45.19,1027.37,2041.02,3457.00,3032.03,3476.99,600.14,606.69,32.83,0000 0000 0000 0000 000000
2017-07-15 11:43:13,-0.00,0.25,0.00,20.94,25.15,28.21,14.27,45.34,1027.36,2041.02,3457.01,3032.04,3476.99,600.11,606.66,32.88,0000 0000 0000 0000 000000
2017-07-15 11:48:14,0.00,0.25,0.00,20.93,25.15,28.22,14.23,45.63,1027.37,2041.01,3457.00,3032.04,3477.01,600.15,606.65,32.93,0000 0000 0000 0000 000000
2017-07-15 11:53:15,0.00,0.25,0.00,20.92,25.15,28.20,14.22,45.60,1027.37,2041.02,3457.00,3032.05,3477.00,600.16,606.86,32.99,0000 0000 0000 0000 000000
2017-07-15 11:58:17,0.00,0.25,0.00,20.89,25.14,28.19,14.21,45.38,1027.37,2041.04,3457.00,3032.06,3477.01,600.22,606.84,33.04,0000 0000 0000 0000 000000
2017-07-15 12:03:18,0.01,0.25,0.00,20.89,25.12,28.20,14.20,45.33,1027.37,2041.06,3457.00,3032.04,3477.00,599.54,606.19,33.09,0000 0000 0000 0000 000000
2017-07-15 12:08:19,-0.01,0.25,0.00,20.88,25.12,28.18,14.17,45.37,1027.36,2041.07,3457.00,3032.09,3477.01,600.01,606.65,33.14,0000 0000 0000 0000 000000
2017-07-15 12:13:20,0.01,0.25,0.00,20.87,25.12,28.18,14.26,45.40,1027.36,2041.11,3457.04,3032.21,3477.02,600.77,607.19,33.19,0000 0000 0000 0000 000000
2017-07-15 12:18:21,-0.01,0.25,0.00,20.85,25.11,28.17,14.13,45.27,1027.36,2041.13,3457.01,3032.27,3477.01,599.72,606.27,33.24,0000 0000 0000 0000 000000
2017-07-15 12:23:22,0.00,0.25,0.00,20.84,25.10,28.16,14.17,45.36,1027.36,2041.18,3457.05,3032.49,3477.04,600.28,606.98,33.29,0000 0000 0000 0000 000000
2017-07-15 12:28:23,0.01,0.25,0.00,20.83,25.10,28.17,14.18,45.52,1027.36,2041.17,3457.01,3032.32,3477.02,599.77,606.36,33.34,0000 0000 0000 0000 000000
2017-07-15 12:33:25,0.02,0.25,0.00,20.82,25.09,28.16,14.23,45.40,1027.36,2041.40,3457.03,3032.49,3477.04,600.16,606.81,33.39,0000 0000 0000 0000 000000
2017-07-15 12:38:26,0.00,0.25,0.00,20.80,25.07,28.14,14.22,45.46,1027.36,2041.53,3457.03,3032.68,3477.10,600.13,607.13,33.44,0000 0000 0000 0000 000000
2017-07-15 12:43:27,0.02,0.25,0.00,20.78,25.07,28.12,14.16,45.55,1027.36,2041.69,3457.02,3032.75,3477.10,599.73,606.57,33.49,0000 0000 0000 0000 000000
2017-07-15 12:48:29,0.00,0.25,0.00,20.77,25.07,28.11,14.13,45.33,1027.37,2041.82,3457.02,3032.74,3477.11,599.96,606.84,33.54,0000 0000 0000 0000 000000
2017-07-15 12:53:30,-0.00,0.25,0.00,20.75,25.05,28.09,14.26,45.38,1027.36,2041.86,3457.02,3032.83,3477.21,600.52,607.35,33.59,0000 0000 0000 0000 000000